Knob Noster, MO

3:31 PM CDT on August 28, 2016 (GMT -0500)
Whiteman Air Force Base

Weather History for KSZL - April, 2013

Change the Weather History Date:

Monday, April 22, 2013

  Actual Average Record
Temperature  
Mean Temperature 58 °F -  
Max Temperature 68 °F 65 °F 80 °F (2006)
Min Temperature 47 °F 46 °F 39 °F (2002)
Degree Days  
Heating Degree Days 8    
Growing Degree Days 8 (Base 50)    
Moisture  
Dew Point 43 °F    
Average Humidity 57    
Maximum Humidity 77    
Minimum Humidity 39    
Precipitation  
Precipitation 0.00 in - - ()
Sea Level Pressure  
Sea Level Pressure 30.03 in    
Wind  
Wind Speed 10 mph (South)    
Max Wind Speed 15 mph    
Max Gust Speed 33 mph    
Visibility 10 miles    
Events Rain    
Averages and records for this station are not official NWS values.
T = Trace of Precipitation, MM = Missing Value Source: NWS Daily Summary

Daily Weather History Graph

Daily Weather History Graph

Search for Another Location

Airport or City:

Trip Planner

Search our weather history database for the weather conditions in past years. The results will help you decide how hot, cold, wet, or windy it might be!

Date:

Astronomy

Apr. 22, 2013 Rise Set
Actual Time 6:27 AM CDT 7:58 PM CDT
Civil Twilight 5:59 AM CDT 8:26 PM CDT
Nautical Twilight 5:26 AM CDT 8:59 PM CDT
Astronomical Twilight 4:50 AM CDT 9:35 PM CDT
Moon 4:49 PM CDT (4/22) 4:20 AM CDT (4/22)
Length of Visible Light 14h 26m
Length of Day
13h 30m
Waxing Gibbous, 88% of the Moon is Illuminated
Apr 22
Waxing Gibbous
Apr 25
Full
May 2
Last Quarter
May 9
New
May 17
First Quarter

Hourly Weather History & Observations

Time (CDT) Temp. Dew Point Humidity Pressure Visibility Wind Dir Wind Speed Gust Speed Precip Events Conditions
12:58 AM 56.7 °F 39.4 °F 52% 30.19 in 10.0 mi SSE 11.5 mph - N/A   Overcast
1:58 AM 55.8 °F 38.8 °F 53% 30.17 in 10.0 mi South 12.7 mph - N/A   Overcast
2:58 AM 53.6 °F 39.2 °F 58% 30.15 in 10.0 mi South 9.2 mph - N/A   Overcast
3:58 AM 51.3 °F 39.0 °F 63% 30.15 in 10.0 mi SSE 8.1 mph - N/A   Clear
4:58 AM 49.5 °F 39.7 °F 69% 30.15 in 10.0 mi South 8.1 mph - N/A   Clear
5:58 AM 49.3 °F 40.6 °F 72% 30.15 in 10.0 mi SSE 8.1 mph - N/A   Overcast
6:58 AM 47.8 °F 40.8 °F 77% 30.15 in 10.0 mi SSE 6.9 mph - N/A   Clear
7:58 AM 51.4 °F 41.5 °F 69% 30.15 in 10.0 mi South 9.2 mph - N/A   Clear
8:58 AM 54.9 °F 42.4 °F 63% 30.14 in 10.0 mi South 13.8 mph - N/A   Clear
9:58 AM 56.5 °F 43.3 °F 61% 30.14 in 10.0 mi South 10.4 mph - N/A   Partly Cloudy
10:58 AM 62.1 °F 45.7 °F 55% 30.12 in 10.0 mi South 12.7 mph - N/A   Partly Cloudy
11:58 AM 63.0 °F 45.5 °F 53% 30.10 in 10.0 mi SSW 6.9 mph - N/A   Mostly Cloudy
12:58 PM 65.3 °F 44.2 °F 46% 30.06 in 10.0 mi SW 8.1 mph - N/A   Mostly Cloudy
1:58 PM 67.5 °F 43.3 °F 42% 30.01 in 10.0 mi South 13.8 mph 21.9 mph N/A   Partly Cloudy
2:58 PM 68.4 °F 44.6 °F 42% 29.99 in 10.0 mi South 10.4 mph - N/A   Partly Cloudy
3:58 PM 65.8 °F 40.1 °F 39% 29.96 in 10.0 mi South 15.0 mph - N/A   Scattered Clouds
4:58 PM 64.6 °F 41.9 °F 44% 29.97 in 10.0 mi SSW 15.0 mph - N/A   Mostly Cloudy
5:24 PM 62.6 °F 42.8 °F 48% 29.95 in 10.0 mi South 10.4 mph - N/A Rain Light Rain
5:39 PM 60.8 °F 42.8 °F 52% 29.96 in 10.0 mi SSW 13.8 mph 33.4 mph N/A   Light Drizzle
5:42 PM 60.8 °F 42.8 °F 52% 29.96 in 10.0 mi South 13.8 mph 29.9 mph N/A Rain Light Rain
5:50 PM 60.8 °F 42.8 °F 52% 29.94 in 10.0 mi South 11.5 mph 20.7 mph N/A   Mostly Cloudy
5:58 PM 60.8 °F 41.0 °F 48% 29.95 in 10.0 mi SSE 8.1 mph - 0.00 in   Mostly Cloudy
6:58 PM 61.0 °F 44.6 °F 55% 29.94 in 10.0 mi SSE 3.5 mph - N/A   Mostly Cloudy
7:02 PM 60.8 °F 44.6 °F 55% 29.94 in 10.0 mi SSE 4.6 mph - N/A   Light Drizzle
7:13 PM 59.0 °F 50.0 °F 72% 29.93 in 10.0 mi SE 3.5 mph - N/A   Mostly Cloudy
7:58 PM 59.0 °F 47.1 °F 65% 29.94 in 10.0 mi SE 4.6 mph - 0.00 in   Overcast
8:58 PM 58.8 °F 44.2 °F 58% 29.95 in 10.0 mi East 4.6 mph - N/A   Overcast
9:58 PM 57.4 °F 46.4 °F 67% 29.97 in 10.0 mi North 10.4 mph - N/A   Overcast
10:40 PM 59.0 °F 42.8 °F 55% 29.98 in 10.0 mi North 4.6 mph - N/A   Light Drizzle
10:50 PM 59.0 °F 44.6 °F 59% 29.99 in 10.0 mi WNW 3.5 mph - N/A   Overcast
10:58 PM 59.0 °F 44.6 °F 59% 29.99 in 10.0 mi Variable 2.3 mph - 0.00 in   Overcast
11:59 PM 56.3 °F 46.2 °F 69% 29.96 in 10.0 mi Calm Calm - N/A   Overcast